Regional Weather Roundup
Issued by NWS Newport/Morehead, NC

Current Version | Previous Version | Graphics & Text | Print | Product List | Glossary On
Versions: 1 2 3 4 5 6 7 8 9 10 11 12 13 14 15 16 17 18 19 20 21 22 23 24 25 26 27 28 29 30 31 32 33 34 35 36 37 38 39 40 41 42 43 44 45 46 47 48 49 50
000 ASUS42 KMHX 242125 RWRMHX WEATHER ROUNDUP FOR EASTERN NORTH CAROLINA NATIONAL WEATHER SERVICE NEWPORT/MOREHEAD CITY NC 500 PM EDT SUN SEP 24 2017 NOTE: "FAIR" INDICATES FEW OR NO CLOUDS BELOW 12,000 FEET WITH NO SIGNIFICANT WEATHER AND/OR OBSTRUCTIONS TO VISIBILITY NCZ015>017-031-032-045>047-102-103-242200- NORTH COAST CITY SKY/WX TMP DP RH WIND PRES REMARKS EDENTON SUNNY 84 60 44 NE9G16 29.99S ELIZABETH CITY SUNNY 81 66 60 NE17 29.99F KITTY HAWK CLEAR 73 67 81 NE5 29.97F MANTEO SUNNY 76 69 77 NE10 29.99F $$ NCZ045>047-081-094-103-104-242200- CENTRAL COAST CITY SKY/WX TMP DP RH WIND PRES REMARKS FRISCO MOSUNNY 78 68 71 NE14G23 29.96F $$ NCZ095-097-098-100-101-242200- SOUTHERN COAST CITY SKY/WX TMP DP RH WIND PRES REMARKS BEAUFORT PTSUNNY 81 67 62 NE12G18 29.94F CEDAR ISLAND NOT AVBL JACKSONVILLE CLOUDY 84 69 60 NE13 29.94S PINEY ISLAND N/A N/A N/A N/A NE18G26 29.94F WILMINGTON CLOUDY 84 68 58 NE8 29.94S $$ NCZ011>013-027>030-043-044-078>080-089-090>093-098-242200- COASTAL PLAIN CITY SKY/WX TMP DP RH WIND PRES REMARKS AHOSKIE SUNNY 84 59 43 N10 30.00S CLINTON MOSUNNY 84 68 58 NE7 29.97F ELIZABETHTOWN NOT AVBL GOLDSBORO CLOUDY 83 65 54 N9 29.95F GREENVILLE MOSUNNY 86 64 48 NE9 29.99S HAVELOCK MOSUNNY 80 69 69 NE13 29.95F KENANSVILLE CLOUDY 82 66 57 N7 29.96F KINSTON MOSUNNY 84 64 51 NE7 29.97F NEW BERN MOSUNNY 83 67 58 NE10 29.96F RICHLANDS PTSUNNY 84 68 58 NE9 29.96S ROCKY MOUNT MOSUNNY 84 63 49 NE5 29.99S WASHINGTON MOSUNNY 84 66 54 NE8 29.97S WHITEVILLE CLOUDY 82 68 62 N6 29.95S $$ AMZ130-135-150-152-154-156-158-170-250-252-270-ANZ085-086-088-633-658-670-242200- MARINE OBSERVATIONS STATION/POSITION TIME TEMP WIND PRES WAVE SWELL AIR SEA DIR/SP/G HT/PER HT/PER (UTC) (F) (DEG/KT/KT) (MB) (FT/S) (FT/S) CHESAPEAKE LIGHT NOT AVBL 64 E VA BEACH 2050 71 72 20/ 12/ 14 1016.1 8/13 8/13 DUCK 2100 73 77 30/ 16/ 17 1015.0 2 E DUCK 2100 76 N/A 4/15 3/15 OREGON INLET 2100 78 30/ 12/ 15 1014.9 13E OREGON INLT 2048 75 N/A 6/13 7/13 HATTERAS CG 2100 76 78 30/ 12/ 23 1014.4 DIAMOND BUOY 2050 75 80 30/ 21/ 25 1013.5 10/15 10/15 CAPE LOOKOUT 2100 78 40/ 25/ 27 1013.5 BEAUFORT LAB 2100 81 77 40/ 10/ 14 1013.3 30 SE NEW RVR IN 2108 78 60/ 19/ 25 1013.2 30 SE NEW RVR IN NOT AVBL 27 SE WRIGHTSVLE 2108 79 80 70/ 19/ 27 1013.0 5 SE WRIGHTSVLE 2108 80 79 70/ 10/ 19 1013.4 225 S CAPE HAT 2050 80 80 30/ 29/ 37 1005.0 22/15 18/15 41 SE CHARLESTON 2110 79 81 30/ 21/ 25 1012.5 $$

USA.gov is the U.S. government's official web portal to all federal, state and local government web resources and services.